Time,TemperatureF,DewpointF,PressureIn,WindDirection,WindDirectionDegrees,WindSpeedMPH,WindSpeedGustMPH,Humidity,HourlyPrecipIn,Conditions,Clouds,dailyrainin,SolarRadiationWatts/m^2,SoftwareType,DateUTC
2013-03-03 00:01:00,55.0,51.0,-100.00,SSE,166,6.0,10.0,85,0.00,,,0.00,0.000000,,2013-03-03 10:01:00,
2013-03-03 00:11:00,55.0,51.0,-100.00,SSE,166,6.0,10.0,85,0.00,,,0.00,0.000000,,2013-03-03 10:11:00,
2013-03-03 00:21:00,55.0,51.0,-100.00,SSE,166,6.0,10.0,85,0.00,,,0.00,0.000000,,2013-03-03 10:21:00,
2013-03-03 00:31:00,55.0,51.0,-100.00,SSE,166,6.0,10.0,85,0.00,,,0.00,0.000000,,2013-03-03 10:31:00,
2013-03-03 00:52:00,56.0,52.0,-100.00,South,176,7.0,10.0,85,0.00,,,0.00,0.000000,,2013-03-03 10:52:00,
2013-03-03 01:01:00,56.0,52.0,-100.00,South,176,7.0,10.0,85,0.00,,,0.00,0.000000,,2013-03-03 11:01:00,
2013-03-03 01:11:00,56.0,52.0,-100.00,South,176,7.0,10.0,85,0.00,,,0.00,0.000000,,2013-03-03 11:11:00,
2013-03-03 01:21:00,56.0,52.0,-100.00,South,176,7.0,10.0,85,0.00,,,0.00,0.000000,,2013-03-03 11:21:00,
2013-03-03 01:31:00,56.0,52.0,-100.00,South,176,7.0,10.0,85,0.00,,,0.00,0.000000,,2013-03-03 11:31:00,
2013-03-03 01:52:00,55.0,48.0,-100.00,SSE,156,7.0,11.0,78,0.00,,,0.00,0.000000,,2013-03-03 11:52:00,
2013-03-03 02:01:00,55.0,48.0,-100.00,SSE,156,7.0,11.0,78,0.00,,,0.00,0.000000,,2013-03-03 12:01:00,
2013-03-03 02:11:00,55.0,48.0,-100.00,SSE,156,7.0,11.0,78,0.00,,,0.00,0.000000,,2013-03-03 12:11:00,
2013-03-03 02:21:00,55.0,48.0,-100.00,SSE,156,7.0,11.0,78,0.00,,,0.00,0.000000,,2013-03-03 12:21:00,
2013-03-03 02:31:00,55.0,48.0,-100.00,SSE,156,7.0,11.0,78,0.00,,,0.00,0.000000,,2013-03-03 12:31:00,
2013-03-03 03:01:00,55.0,46.0,-100.00,SSE,151,5.0,12.0,71,0.00,,,0.00,0.000000,,2013-03-03 13:01:00,
2013-03-03 03:11:00,55.0,46.0,-100.00,SSE,151,5.0,12.0,71,0.00,,,0.00,0.000000,,2013-03-03 13:11:00,
2013-03-03 03:21:00,55.0,46.0,-100.00,SSE,151,5.0,12.0,71,0.00,,,0.00,0.000000,,2013-03-03 13:21:00,
2013-03-03 03:31:00,55.0,46.0,-100.00,SSE,151,5.0,12.0,71,0.00,,,0.00,0.000000,,2013-03-03 13:31:00,
2013-03-03 04:01:00,52.0,45.0,-100.00,SE,132,7.0,10.0,78,0.00,,,0.00,0.000000,,2013-03-03 14:01:00,
2013-03-03 04:11:00,52.0,45.0,-100.00,SE,132,7.0,10.0,78,0.00,,,0.00,0.000000,,2013-03-03 14:11:00,
2013-03-03 04:21:00,52.0,45.0,-100.00,SE,132,7.0,10.0,78,0.00,,,0.00,0.000000,,2013-03-03 14:21:00,
2013-03-03 04:31:00,52.0,45.0,-100.00,SE,132,7.0,10.0,78,0.00,,,0.00,0.000000,,2013-03-03 14:31:00,
2013-03-03 05:01:00,54.0,48.0,-100.00,SSE,163,6.0,10.0,81,0.00,,,0.00,0.000000,,2013-03-03 15:01:00,
2013-03-03 05:11:00,54.0,48.0,-100.00,SSE,163,6.0,10.0,81,0.00,,,0.00,0.000000,,2013-03-03 15:11:00,
2013-03-03 05:22:00,54.0,48.0,-100.00,SSE,163,6.0,10.0,81,0.00,,,0.00,0.000000,,2013-03-03 15:22:00,
2013-03-03 05:31:00,54.0,48.0,-100.00,SSE,163,6.0,10.0,81,0.00,,,0.00,0.000000,,2013-03-03 15:31:00,
2013-03-03 05:52:00,52.0,47.0,-100.00,South,180,7.0,10.0,83,0.00,,,0.00,0.000000,,2013-03-03 15:52:00,
2013-03-03 06:01:00,52.0,47.0,-100.00,South,180,7.0,10.0,83,0.00,,,0.00,0.000000,,2013-03-03 16:01:00,
2013-03-03 06:12:00,52.0,47.0,-100.00,South,180,7.0,10.0,83,0.00,,,0.00,0.000000,,2013-03-03 16:12:00,
2013-03-03 06:21:00,52.0,47.0,-100.00,South,180,7.0,10.0,83,0.00,,,0.00,0.000000,,2013-03-03 16:21:00,
2013-03-03 06:31:00,52.0,47.0,-100.00,South,180,7.0,10.0,83,0.00,,,0.00,0.000000,,2013-03-03 16:31:00,
2013-03-03 06:52:00,52.0,47.0,-100.00,SSE,152,6.0,11.0,84,0.00,,,0.00,0.000000,,2013-03-03 16:52:00,
2013-03-03 07:01:00,52.0,47.0,-100.00,SSE,152,6.0,11.0,84,0.00,,,0.00,0.000000,,2013-03-03 17:01:00,
2013-03-03 07:11:00,52.0,47.0,-100.00,SSE,152,6.0,11.0,84,0.00,,,0.00,0.000000,,2013-03-03 17:11:00,
2013-03-03 07:22:00,52.0,47.0,-100.00,SSE,152,6.0,11.0,84,0.00,,,0.00,0.000000,,2013-03-03 17:22:00,
2013-03-03 07:32:00,52.0,47.0,-100.00,SSE,152,6.0,11.0,84,0.00,,,0.00,0.000000,,2013-03-03 17:32:00,
2013-03-03 07:52:00,56.0,52.0,-100.00,SE,145,5.0,8.0,88,0.00,,,0.00,60.000000,,2013-03-03 17:52:00,
2013-03-03 08:01:00,56.0,52.0,-100.00,SE,145,5.0,8.0,88,0.00,,,0.00,60.000000,,2013-03-03 18:01:00,
2013-03-03 08:11:00,56.0,52.0,-100.00,SE,145,5.0,8.0,88,0.00,,,0.00,60.000000,,2013-03-03 18:11:00,
2013-03-03 08:21:00,56.0,52.0,-100.00,SE,145,5.0,8.0,88,0.00,,,0.00,60.000000,,2013-03-03 18:21:00,
2013-03-03 08:31:00,56.0,52.0,-100.00,SE,145,5.0,8.0,88,0.00,,,0.00,60.000000,,2013-03-03 18:31:00,
2013-03-03 08:52:00,67.0,56.0,-100.00,SW,229,0.0,8.0,68,0.00,,,0.00,362.000000,,2013-03-03 18:52:00,
2013-03-03 09:01:00,67.0,56.0,-100.00,SW,229,0.0,8.0,68,0.00,,,0.00,362.000000,,2013-03-03 19:01:00,
2013-03-03 09:11:00,67.0,56.0,-100.00,SW,229,0.0,8.0,68,0.00,,,0.00,362.000000,,2013-03-03 19:11:00,
2013-03-03 09:21:00,67.0,56.0,-100.00,SW,229,0.0,8.0,68,0.00,,,0.00,362.000000,,2013-03-03 19:21:00,
2013-03-03 09:31:00,67.0,56.0,-100.00,SW,229,0.0,8.0,68,0.00,,,0.00,362.000000,,2013-03-03 19:31:00,
2013-03-03 10:01:00,66.0,52.0,-100.00,West,271,4.0,13.0,60,0.00,,,0.00,674.000000,,2013-03-03 20:01:00,
2013-03-03 10:11:00,66.0,52.0,-100.00,West,271,4.0,13.0,60,0.00,,,0.00,674.000000,,2013-03-03 20:11:00,
2013-03-03 10:21:00,66.0,52.0,-100.00,West,271,4.0,13.0,60,0.00,,,0.00,674.000000,,2013-03-03 20:21:00,
2013-03-03 10:32:00,66.0,52.0,-100.00,West,271,4.0,13.0,60,0.00,,,0.00,674.000000,,2013-03-03 20:32:00,
2013-03-03 10:53:00,69.0,53.0,-100.00,WNW,283,6.0,14.0,57,0.00,,,0.00,858.000000,,2013-03-03 20:53:00,
2013-03-03 11:01:00,69.0,53.0,-100.00,WNW,283,6.0,14.0,57,0.00,,,0.00,858.000000,,2013-03-03 21:01:00,
2013-03-03 11:11:00,69.0,53.0,-100.00,WNW,283,6.0,14.0,57,0.00,,,0.00,858.000000,,2013-03-03 21:11:00,
2013-03-03 11:21:00,69.0,53.0,-100.00,WNW,283,6.0,14.0,57,0.00,,,0.00,858.000000,,2013-03-03 21:21:00,
2013-03-03 11:31:00,69.0,53.0,-100.00,WNW,283,6.0,14.0,57,0.00,,,0.00,858.000000,,2013-03-03 21:31:00,
2013-03-03 11:52:00,68.0,54.0,-100.00,West,264,9.0,18.0,61,0.00,,,0.00,649.000000,,2013-03-03 21:52:00,
2013-03-03 12:01:00,68.0,54.0,-100.00,West,264,9.0,18.0,61,0.00,,,0.00,649.000000,,2013-03-03 22:01:00,
2013-03-03 12:11:00,68.0,54.0,-100.00,West,264,9.0,18.0,61,0.00,,,0.00,649.000000,,2013-03-03 22:11:00,
2013-03-03 12:21:00,68.0,54.0,-100.00,West,264,9.0,18.0,61,0.00,,,0.00,649.000000,,2013-03-03 22:21:00,
2013-03-03 12:31:00,68.0,54.0,-100.00,West,264,9.0,18.0,61,0.00,,,0.00,649.000000,,2013-03-03 22:31:00,
2013-03-03 13:01:00,71.0,52.0,-100.00,WNW,298,10.0,25.0,51,0.00,,,0.00,1143.000000,,2013-03-03 23:01:00,
2013-03-03 13:11:00,71.0,52.0,-100.00,WNW,298,10.0,25.0,51,0.00,,,0.00,1143.000000,,2013-03-03 23:11:00,
2013-03-03 13:21:00,71.0,52.0,-100.00,WNW,298,10.0,25.0,51,0.00,,,0.00,1143.000000,,2013-03-03 23:21:00,
2013-03-03 13:31:00,71.0,52.0,-100.00,WNW,298,10.0,25.0,51,0.00,,,0.00,1143.000000,,2013-03-03 23:31:00,
2013-03-03 13:52:00,71.0,51.0,-100.00,NW,317,11.0,21.0,49,0.00,,,0.00,790.000000,,2013-03-03 23:52:00,
2013-03-03 14:01:00,71.0,51.0,-100.00,NW,317,11.0,21.0,49,0.00,,,0.00,790.000000,,2013-03-04 00:01:00,
2013-03-03 14:11:00,71.0,51.0,-100.00,NW,317,11.0,21.0,49,0.00,,,0.00,790.000000,,2013-03-04 00:11:00,
2013-03-03 14:21:00,71.0,51.0,-100.00,NW,317,11.0,21.0,49,0.00,,,0.00,790.000000,,2013-03-04 00:21:00,
2013-03-03 14:32:00,71.0,51.0,-100.00,NW,317,11.0,21.0,49,0.00,,,0.00,790.000000,,2013-03-04 00:32:00,
2013-03-03 15:01:00,72.0,52.0,-100.00,North,1,11.0,24.0,49,0.00,,,0.00,813.000000,,2013-03-04 01:01:00,
2013-03-03 15:11:00,72.0,52.0,-100.00,North,1,11.0,24.0,49,0.00,,,0.00,813.000000,,2013-03-04 01:11:00,
2013-03-03 15:21:00,72.0,52.0,-100.00,North,1,11.0,24.0,49,0.00,,,0.00,813.000000,,2013-03-04 01:21:00,
2013-03-03 15:31:00,72.0,52.0,-100.00,North,1,11.0,24.0,49,0.00,,,0.00,813.000000,,2013-03-04 01:31:00,
2013-03-03 15:52:00,73.0,53.0,-100.00,NW,320,4.0,19.0,50,0.00,,,0.00,807.000000,,2013-03-04 01:52:00,
2013-03-03 16:01:00,73.0,53.0,-100.00,NW,320,4.0,19.0,50,0.00,,,0.00,807.000000,,2013-03-04 02:01:00,
2013-03-03 16:11:00,73.0,53.0,-100.00,NW,320,4.0,19.0,50,0.00,,,0.00,807.000000,,2013-03-04 02:11:00,
2013-03-03 16:22:00,73.0,53.0,-100.00,NW,320,4.0,19.0,50,0.00,,,0.00,807.000000,,2013-03-04 02:22:00,
2013-03-03 16:31:00,73.0,53.0,-100.00,NW,320,4.0,19.0,50,0.00,,,0.00,807.000000,,2013-03-04 02:31:00,
2013-03-03 16:52:00,70.0,51.0,-100.00,NNE,31,12.0,16.0,51,0.00,,,0.00,426.000000,,2013-03-04 02:52:00,
2013-03-03 17:01:00,70.0,51.0,-100.00,NNE,31,12.0,16.0,51,0.00,,,0.00,426.000000,,2013-03-04 03:01:00,
2013-03-03 17:11:00,70.0,51.0,-100.00,NNE,31,12.0,16.0,51,0.00,,,0.00,426.000000,,2013-03-04 03:11:00,
2013-03-03 17:21:00,70.0,51.0,-100.00,NNE,31,12.0,16.0,51,0.00,,,0.00,426.000000,,2013-03-04 03:21:00,
2013-03-03 17:31:00,70.0,51.0,-100.00,NNE,31,12.0,16.0,51,0.00,,,0.00,426.000000,,2013-03-04 03:31:00,
2013-03-03 17:52:00,67.0,53.0,-100.00,NE,43,12.0,21.0,61,0.00,,,0.00,231.000000,,2013-03-04 03:52:00,
2013-03-03 18:01:00,67.0,53.0,-100.00,NE,43,12.0,21.0,61,0.00,,,0.00,231.000000,,2013-03-04 04:01:00,
2013-03-03 18:11:00,67.0,53.0,-100.00,NE,43,12.0,21.0,61,0.00,,,0.00,231.000000,,2013-03-04 04:11:00,
2013-03-03 18:22:00,67.0,53.0,-100.00,NE,43,12.0,21.0,61,0.00,,,0.00,231.000000,,2013-03-04 04:22:00,
2013-03-03 18:31:00,67.0,53.0,-100.00,NE,43,12.0,21.0,61,0.00,,,0.00,231.000000,,2013-03-04 04:31:00,
2013-03-03 18:52:00,62.0,52.0,-100.00,NE,53,6.0,17.0,69,0.00,,,0.00,66.000000,,2013-03-04 04:52:00,
2013-03-03 19:01:00,62.0,52.0,-100.00,NE,53,6.0,17.0,69,0.00,,,0.00,66.000000,,2013-03-04 05:01:00,
2013-03-03 19:11:00,62.0,52.0,-100.00,NE,53,6.0,17.0,69,0.00,,,0.00,66.000000,,2013-03-04 05:11:00,
2013-03-03 19:22:00,62.0,52.0,-100.00,NE,53,6.0,17.0,69,0.00,,,0.00,66.000000,,2013-03-04 05:22:00,
2013-03-03 19:31:00,62.0,52.0,-100.00,NE,53,6.0,17.0,69,0.00,,,0.00,66.000000,,2013-03-04 05:31:00,
2013-03-03 20:01:00,60.0,51.0,-100.00,East,80,5.0,22.0,71,0.00,,,0.00,0.000000,,2013-03-04 06:01:00,
2013-03-03 20:11:00,60.0,51.0,-100.00,East,80,5.0,22.0,71,0.00,,,0.00,0.000000,,2013-03-04 06:11:00,
2013-03-03 20:21:00,60.0,51.0,-100.00,East,80,5.0,22.0,71,0.00,,,0.00,0.000000,,2013-03-04 06:21:00,
2013-03-03 20:31:00,60.0,51.0,-100.00,East,80,5.0,22.0,71,0.00,,,0.00,0.000000,,2013-03-04 06:31:00,
2013-03-03 21:01:00,58.0,47.0,-100.00,East,79,10.0,17.0,68,0.00,,,0.00,0.000000,,2013-03-04 07:01:00,
2013-03-03 21:11:00,58.0,47.0,-100.00,East,79,10.0,17.0,68,0.00,,,0.00,0.000000,,2013-03-04 07:11:00,
2013-03-03 21:21:00,58.0,47.0,-100.00,East,79,10.0,17.0,68,0.00,,,0.00,0.000000,,2013-03-04 07:21:00,
2013-03-03 21:31:00,58.0,47.0,-100.00,East,79,10.0,17.0,68,0.00,,,0.00,0.000000,,2013-03-04 07:31:00,
2013-03-03 21:52:00,58.0,50.0,-100.00,ENE,74,6.0,22.0,75,0.00,,,0.00,0.000000,,2013-03-04 07:52:00,
2013-03-03 22:01:00,58.0,50.0,-100.00,ENE,74,6.0,22.0,75,0.00,,,0.00,0.000000,,2013-03-04 08:01:00,
2013-03-03 22:11:00,58.0,50.0,-100.00,ENE,74,6.0,22.0,75,0.00,,,0.00,0.000000,,2013-03-04 08:11:00,
2013-03-03 22:21:00,58.0,50.0,-100.00,ENE,74,6.0,22.0,75,0.00,,,0.00,0.000000,,2013-03-04 08:21:00,
2013-03-03 22:31:00,58.0,50.0,-100.00,ENE,74,6.0,22.0,75,0.00,,,0.00,0.000000,,2013-03-04 08:31:00,
2013-03-03 22:52:00,57.0,45.0,-100.00,ESE,118,5.0,18.0,65,0.00,,,0.00,0.000000,,2013-03-04 08:52:00,
2013-03-03 23:01:00,57.0,45.0,-100.00,ESE,118,5.0,18.0,65,0.00,,,0.00,0.000000,,2013-03-04 09:01:00,
2013-03-03 23:11:00,57.0,45.0,-100.00,ESE,118,5.0,18.0,65,0.00,,,0.00,0.000000,,2013-03-04 09:11:00,
2013-03-03 23:21:00,57.0,45.0,-100.00,ESE,118,5.0,18.0,65,0.00,,,0.00,0.000000,,2013-03-04 09:21:00,
2013-03-03 23:31:00,57.0,45.0,-100.00,ESE,118,5.0,18.0,65,0.00,,,0.00,0.000000,,2013-03-04 09:31:00,
2013-03-03 23:52:00,55.0,50.0,-100.00,SE,143,7.0,9.0,83,0.00,,,0.00,0.000000,,2013-03-04 09:52:00,